Regional Weather Roundup
Issued by NWS

Home | Current Version | Previous Version | Text Only | Print | Product List | Glossary Off
Versions: 1 2 3 4 5 6 7 8 9 10 11 12 13 14 15 16 17 18 19 20 21 22 23 24 25 26 27 28 29 30 31 32 33 34 35 36 37 38 39 40 41 42 43 44 45 46 47 48 49 50

000
ASUS43 KFSD 230602
RWRSD

WEATHER ROUNDUP FOR SOUTH DAKOTA
NATIONAL WEATHER SERVICE SIOUX FALLS SD
100 AM CDT TUE MAY 23 2017

NOTE: "FAIR" INDICATES FEW OR NO CLOUDS BELOW 12,000 FEET WITH NO
SIGNIFICANT WEATHER AND/OR OBSTRUCTIONS TO VISIBILITY.


SDZ001>005-009-010-012>017-230700-
NORTHWEST AND NORTH CENTRAL SOUTH DAKOTA

CITY           SKY/WX    TMP DP  RH WIND       PRES   REMARKS
BUFFALO          N/A     51  42  71 NW13      30.07S
FAITH            N/A     50  41  71 NW13      30.06F
MOBRIDGE       CLOUDY    53  42  66 NE16      30.00R
$$

SDZ012>016-024>037-041>051-057-063-072>074-230700-
SOUTHWEST AND SOUTH CENTRAL SOUTH DAKOTA

CITY           SKY/WX    TMP DP  RH WIND       PRES   REMARKS
RAPID CTY ARPT MOCLDY    44  38  79 NW9       30.13S
PIERRE         CLOUDY    51  41  68 SW6       29.99F
CUSTER         CLOUDY    38  32  79 N6        30.17F
ELLSWORTH AFB  CLOUDY    48  42  79 NW12      30.12F
PHILIP         CLOUDY    49  46  90 NW10      30.07S
PINE RIDGE     CLOUDY    43  42  97 CALM      30.14S
SPEARFISH      CLOUDY    45  41  87 W8        30.18S
WINNER         CLOUDY    51  45  79 W7        30.03F
$$

SDZ004>011-016>023-039-040-230700-
NORTHEAST SOUTH DAKOTA

CITY           SKY/WX    TMP DP  RH WIND       PRES   REMARKS
ABERDEEN       CLOUDY    48  43  82 N12       29.97S
WATERTOWN      CLOUDY    47  44  90 NW14      29.91S
BROOKINGS      LGT RAIN  46  43  89 NW9       29.93R
SISSETON         N/A     47  46  97 N12       29.90S
$$

SDZ017-020-022-023-036>040-048>070-230700-
SOUTHEAST SOUTH DAKOTA

CITY           SKY/WX    TMP DP  RH WIND       PRES   REMARKS
SIOUX FALLS    PTCLDY    50  44  80 NW17      29.92S
HURON          CLOUDY    47  46  97 W7        29.97F
MITCHELL       LGT RAIN  49  45  86 N8        29.99S
YANKTON        MOCLDY    50  44  80 NW13      29.95F
$$

ABBREVIATIONS USED IN REMARKS
   TC - TEMPERATURE IN CELSIUS
  WCI - WIND CHILL INDEX
   HX - HEAT INDEX
  VSB - VISIBILITY




USA.gov is the U.S. government's official web portal to all federal, state and local government web resources and services.